SY4AIL-13 Weather Reports


time (UTC)temp
F
wind
direction
speed
knots
gust
knots
rain 1hr
in
rain 24hr
in
rain mn
in
humidity
%
barometer
mb
20260508022524 63 0.0 0.0 0.00 0.00 0.00 96 1022.3
20260508021525 63 0.0 0.0 0.00 0.00 0.00 99 1021.8
20260508020524 62 0.0 0.0 0.00 0.00 0.00 10 1022.8
20260508015524 63 0.0 0.0 0.00 0.00 0.00 98 1022.6
20260508014524 63 0.0 0.0 0.00 0.00 0.00 98 1022.2
20260508013524 63 0.0 0.0 0.00 0.00 0.00 98 1022.5
20260508012539 63 0.0 0.0 0.00 0.00 0.00 99 1022.7
20260508011524 63 0.0 0.0 0.00 0.00 0.00 96 1022.7
20260508010524 63 0.0 0.0 0.00 0.00 0.00 95 1022.8
20260508005524 63 0.0 0.0 0.00 0.00 0.00 95 1022.6
20260508004539 64 0.0 0.0 0.00 0.00 0.00 92 1022.6
20260508003524 64 0.0 0.0 0.00 0.00 0.00 94 1022.8
20260508002524 64 0.0 0.0 0.00 0.00 0.00 93 1023.1
20260508001524 64 0.0 0.0 0.00 0.00 0.00 94 1022.8
20260508000524 64 0.0 0.0 0.00 0.00 0.00 93 1022.8
20260507235614 64 0.0 0.0 0.00 0.00 0.00 94 1022.9
20260507234524 63 0.0 0.0 0.00 0.00 0.00 92 1023.1
20260507233524 63 0.0 0.0 0.00 0.00 0.00 97 1023.5
20260507232527 63 0.0 0.0 0.00 0.00 0.00 98 1023.5
20260507231539 63 0.0 0.0 0.00 0.00 0.00 95 1023.8
20260507230519 64 0.0 0.0 0.00 0.00 0.00 95 1023.6
20260507225524 64 0.0 0.0 0.00 0.00 0.00 95 1023.9
20260507224524 64 0.0 0.0 0.00 0.00 0.00 93 1023.6
20260507223524 64 0.0 0.0 0.00 0.00 0.00 92 1023.9
20260507222526 64 0.0 0.0 0.00 0.00 0.00 89 1023.6
20260507221524 64 0.0 0.0 0.00 0.00 0.00 90 1023.9
20260507220524 65 0.0 0.0 0.00 0.00 0.00 92 1023.9
20260507215524 65 0.0 0.0 0.00 0.00 0.00 93 1023.8
20260507214524 65 0.0 0.0 0.00 0.00 0.00 88 1023.5
20260507213524 65 0.0 0.0 0.00 0.00 0.00 90 1023.6
20260507212523 65 0.0 0.0 0.00 0.00 0.00 91 1023.5
20260507211524 65 0.0 0.0 0.00 0.00 0.00 93 1023.8
20260507210524 65 0.0 0.0 0.00 0.00 0.00 92 1024.1
20260507205526 65 0.0 0.0 0.00 0.00 0.00 88 1024.1
20260507204524 66 0.0 0.0 0.00 0.00 0.00 86 1023.7
20260507203523 65 0.0 0.0 0.00 0.00 0.00 87 1023.9
20260507202526 65 0.0 0.0 0.00 0.00 0.00 89 1024.4
20260507201524 66 0.0 0.0 0.00 0.00 0.00 87 1024.5
20260507200523 66 0.0 0.0 0.00 0.00 0.00 86 1024.2
20260507195525 67 0.0 0.0 0.00 0.00 0.00 83 1024.3
20260507194539 67 0.0 0.0 0.00 0.00 0.00 82 1023.9
20260507193539 67 0.0 0.0 0.00 0.00 0.00 80 1024.1
20260507192524 67 0.0 0.0 0.00 0.00 0.00 80 1024.3
20260507191524 68 0.0 0.0 0.00 0.00 0.00 79 1024.2
20260507190523 68 0.0 0.0 0.00 0.00 0.00 78 1023.6
20260507185523 68 0.0 0.0 0.00 0.00 0.00 81 1024.0
20260507184539 69 0.0 0.0 0.00 0.00 0.00 78 1023.9
20260507182523 69 0.0 0.0 0.00 0.00 0.00 77 1023.0
20260507181523 69 0.0 0.0 0.00 0.00 0.00 79 1023.4
20260507180539 70 0.0 0.0 0.00 0.00 0.00 78 1023.1
20260507175523 70 0.0 0.0 0.00 0.00 0.00 77 1023.8
20260507174539 71 0.0 0.0 0.00 0.00 0.00 74 1023.2
20260507173538 72 0.0 0.0 0.00 0.00 0.00 70 1022.8
20260507172538 72 0.0 0.0 0.00 0.00 0.00 70 1023.1
20260507171538 72 0.0 0.0 0.00 0.00 0.00 72 1023.0
20260507170524 73 0.0 0.0 0.00 0.00 0.00 70 1022.8
20260507165524 74 0.0 0.0 0.00 0.00 0.00 65 1022.7
20260507164538 74 0.0 0.0 0.00 0.00 0.00 64 1022.9
20260507163523 75 0.0 0.0 0.00 0.00 0.00 67 1022.3
20260507162523 75 0.0 0.0 0.00 0.00 0.00 61 1023.1
20260507161554 75 0.0 0.0 0.00 0.00 0.00 62 1022.4
20260507160523 75 0.0 0.0 0.00 0.00 0.00 62 1022.5
20260507155523 75 0.0 0.0 0.00 0.00 0.00 60 1022.9
20260507154523 76 0.0 0.0 0.00 0.00 0.00 58 1022.4
20260507153539 76 0.0 0.0 0.00 0.00 0.00 57 1022.9
20260507152523 76 0.0 0.0 0.00 0.00 0.00 55 1022.5
20260507151539 76 0.0 0.0 0.00 0.00 0.00 54 1022.5
20260507150523 76 0.0 0.0 0.00 0.00 0.00 52 1023.1
20260507145539 77 0.0 0.0 0.00 0.00 0.00 52 1022.9
20260507144523 77 0.0 0.0 0.00 0.00 0.00 49 1022.4
20260507143523 76 0.0 0.0 0.00 0.00 0.00 52 1023.4
20260507142525 77 0.0 0.0 0.00 0.00 0.00 54 1022.0
20260507141538 77 0.0 0.0 0.00 0.00 0.00 53 1022.8
20260507140523 77 0.0 0.0 0.00 0.00 0.00 51 1022.2
20260507135523 76 0.0 0.0 0.00 0.00 0.00 54 1023.1
20260507134523 77 0.0 0.0 0.00 0.00 0.00 56 1022.3
20260507133523 77 0.0 0.0 0.00 0.00 0.00 56 1023.6
20260507132525 77 0.0 0.0 0.00 0.00 0.00 53 1023.1
20260507131523 78 0.0 0.0 0.00 0.00 0.00 52 1023.2
20260507130523 78 0.0 0.0 0.00 0.00 0.00 51 1022.6
20260507125525 78 0.0 0.0 0.00 0.00 0.00 54 1023.0
20260507124538 78 0.0 0.0 0.00 0.00 0.00 55 1023.0
20260507123523 79 0.0 0.0 0.00 0.00 0.00 56 1022.2
20260507122526 78 0.0 0.0 0.00 0.00 0.00 56 1023.4
20260507121523 78 0.0 0.0 0.00 0.00 0.00 57 1022.5
20260507120523 77 0.0 0.0 0.00 0.00 0.00 56 1023.2
20260507115538 77 0.0 0.0 0.00 0.00 0.00 56 1022.0
20260507114523 75 0.0 0.0 0.00 0.00 0.00 57 1023.6
20260507113523 75 0.0 0.0 0.00 0.00 0.00 59 1023.2
20260507112523 74 0.0 0.0 0.00 0.00 0.00 58 1024.0
20260507111523 75 0.0 0.0 0.00 0.00 0.00 62 1022.7
20260507110524 73 0.0 0.0 0.00 0.00 0.00 62 1023.7
20260507105523 73 0.0 0.0 0.00 0.00 0.00 61 1024.8
20260507104523 74 0.0 0.0 0.00 0.00 0.00 55 1023.2
20260507103523 74 0.0 0.0 0.00 0.00 0.00 59 1023.4
20260507102553 73 0.0 0.0 0.00 0.00 0.00 61 1024.3
20260507101523 73 0.0 0.0 0.00 0.00 0.00 60 1025.5
20260507100523 74 0.0 0.0 0.00 0.00 0.00 62 1023.7
20260507095523 74 0.0 0.0 0.00 0.00 0.00 64 1023.5
20260507094538 73 0.0 0.0 0.00 0.00 0.00 64 1023.7
20260507093523 72 0.0 0.0 0.00 0.00 0.00 63 1024.2
20260507092523 73 0.0 0.0 0.00 0.00 0.00 63 1023.6
20260507091523 72 0.0 0.0 0.00 0.00 0.00 64 1023.1
20260507090523 71 0.0 0.0 0.00 0.00 0.00 65 1023.1
20260507085523 70 0.0 0.0 0.00 0.00 0.00 69 1023.6
20260507084523 69 0.0 0.0 0.00 0.00 0.00 70 1022.8
20260507083524 68 0.0 0.0 0.00 0.00 0.00 69 1025.3
20260507082523 69 0.0 0.0 0.00 0.00 0.00 70 1024.2
20260507081522 69 0.0 0.0 0.00 0.00 0.00 69 1022.9
20260507080538 68 0.0 0.0 0.00 0.00 0.00 71 1023.6
20260507075522 68 0.0 0.0 0.00 0.00 0.00 70 1023.1
20260507074523 67 0.0 0.0 0.00 0.00 0.00 71 1024.5
20260507073523 68 0.0 0.0 0.00 0.00 0.00 71 1024.1
20260507072523 68 0.0 0.0 0.00 0.00 0.00 71 1022.9
20260507071523 67 0.0 0.0 0.00 0.00 0.00 68 1023.0
20260507070523 66 0.0 0.0 0.00 0.00 0.00 70 1022.5
20260507065538 65 0.0 0.0 0.00 0.00 0.00 74 1023.3
20260507064523 65 0.0 0.0 0.00 0.00 0.00 73 1023.4
20260507063522 64 0.0 0.0 0.00 0.00 0.00 75 1023.6
20260507062522 64 0.0 0.0 0.00 0.00 0.00 75 1023.1
20260507061522 64 0.0 0.0 0.00 0.00 0.00 78 1023.4
20260507060522 63 0.0 0.0 0.00 0.00 0.00 79 1023.7
20260507055522 63 0.0 0.0 0.00 0.00 0.00 80 1024.0
20260507054523 64 0.0 0.0 0.00 0.00 0.00 74 1024.1
20260507053523 64 0.0 0.0 0.00 0.00 0.00 75 1022.3
20260507052523 63 0.0 0.0 0.00 0.00 0.00 78 1022.1
20260507051522 61 0.0 0.0 0.00 0.00 0.00 77 1023.6
20260507050523 62 0.0 0.0 0.00 0.00 0.00 80 1022.8
20260507045523 61 0.0 0.0 0.00 0.00 0.00 84 1022.8
20260507044522 61 0.0 0.0 0.00 0.00 0.00 85 1022.3
20260507043522 60 0.0 0.0 0.00 0.00 0.00 89 1022.2
20260507042522 59 0.0 0.0 0.00 0.00 0.00 89 1022.8
20260507041522 59 0.0 0.0 0.00 0.00 0.00 92 1022.6
20260507040522 59 0.0 0.0 0.00 0.00 0.00 89 1022.8
20260507035522 59 0.0 0.0 0.00 0.00 0.00 90 1022.7
20260507034522 59 0.0 0.0 0.00 0.00 0.00 88 1022.5
20260507033537 58 0.0 0.0 0.00 0.00 0.00 92 1022.7
20260507032522 59 0.0 0.0 0.00 0.00 0.00 93 1022.5
20260507031522 58 0.0 0.0 0.00 0.00 0.00 93 1022.6
20260507030522 58 0.0 0.0 0.00 0.00 0.00 95 1022.7
20260507025553 58 0.0 0.0 0.00 0.00 0.00 92 1022.7
20260507024522 59 0.0 0.0 0.00 0.00 0.00 92 1022.7
20260507023522 59 0.0 0.0 0.00 0.00 0.00 92 1022.3